[Iaude] MPEC D25: 2024 BM15 [a=2.20,e=0.62,i=9.4,H=21.1,PHA]
    mpec at cfa.harvard.edu 
    mpec at cfa.harvard.edu
       
    Fri Feb 16 20:29:21 EST 2024
    
    
  
M.P.E.C. 2024-D25                             Issued 2024 February 17, 01:27 UT
     The Minor Planet Electronic Circulars contain information on unusual
         minor planets, routine data on comets and natural satellites,
         and occasional editorial announcements.  They are published
    on behalf of Division F of the International Astronomical Union by the
          Minor Planet Center, Smithsonian Astrophysical Observatory,
                          Cambridge, MA 02138, U.S.A.
			  
             Prepared using the Tamkin Foundation Computer Network
                              MPC at CFA.HARVARD.EDU
            URL https://www.minorplanetcenter.net/    ISSN 1523-6714
                                   2024 BM15                                    
Observations:
     K24B15M  C2024 01 02.62104309 15 40.810+28 37 36.11         21.72GVED025F52
     K24B15M  C2024 01 02.63079909 15 40.886+28 37 46.16         22.95GVED025F52
     K24B15M  C2024 01 07.46785309 16 30.753+30 13 28.64         21.91GVED025F51
     K24B15M  C2024 01 07.47816909 16 30.731+30 13 42.05         21.99GVED025F51
     K24B15M  C2024 01 07.48853809 16 30.713+30 13 55.66         22.03GVED025F51
     K24B15M  C2024 01 07.49901809 16 30.697+30 14 09.31         22.36GVED025F51
     K24B15M* C2024 01 20.56939709 13 05.367+36 04 39.78         21.03wXED025F52
     K24B15M  C2024 01 20.58056509 13 04.852+36 05 01.11         20.92wXED025F52
     K24B15M  C2024 01 20.60291909 13 03.855+36 05 43.78         21.06wXED025F52
     K24B15M  C2024 02 01.42293009 00 16.412+43 32 51.15         21.08GVED025F52
     K24B15M  C2024 02 01.43404109 00 15.174+43 33 20.10         20.80GVED025F52
     K24B15M  C2024 02 03.55808808 56 34.471+45 06 40.16         20.83GVED025F52
     K24B15M  C2024 02 03.55873308 56 34.380+45 06 42.02         20.16GVED025F52
     K24B15M 1C2024 02 15.33332608 25 32.718+54 40 21.32         19.94GVED025G96
     K24B15M 1C2024 02 15.33858508 25 31.508+54 40 37.31         20.06GVED025G96
     K24B15M 1C2024 02 15.34384508 25 30.270+54 40 53.36         20.04GVED025G96
     K24B15M 1C2024 02 15.34910208 25 29.082+54 41 09.10         20.09GVED025G96
     K24B15M  C2024 02 15.36944308 25 26.476+54 42 20.80         19.63GVED025F51
     K24B15M  C2024 02 15.38261308 25 23.342+54 43 01.55         20.08GVED025F51
     K24B15M  C2024 02 15.42372208 25 11.921+54 44 52.37         19.7 GVED025H01
     K24B15M  C2024 02 15.42816208 25 10.924+54 45 05.58         19.7 GVED025H01
     K24B15M  C2024 02 15.43386908 25 09.640+54 45 22.60         19.7 GVED025H01
     K24B15M  C2024 02 15.44447608 25 07.263+54 45 54.33         19.7 GVED025H01
     K24B15M KC2024 02 15.46105608 25 03.565+54 46 45.44         20.30GVED025I52
     K24B15M KC2024 02 15.46377508 25 02.942+54 46 53.51         20.06GVED025I52
     K24B15M KC2024 02 15.46650608 25 02.345+54 47 01.72         20.56GVED025I52
     K24B15M KC2024 02 15.46922508 25 01.736+54 47 09.60         20.32GVED025I52
     K24B15M hC2024 02 15.84464808 23 42.74 +55 06 44.0          20.5 GVED025L01
     K24B15M hC2024 02 15.84633208 23 42.27 +55 06 49.2          20.5 GVED025L01
     K24B15M hC2024 02 15.84801608 23 41.88 +55 06 54.2          20.2 GVED025L01
     K24B15M hC2024 02 15.84970008 23 41.49 +55 06 59.5          20.5 GVED025L01
     K24B15M hC2024 02 15.85138308 23 41.06 +55 07 05.0          20.7 GVED025L01
     K24B15M KB2024 02 16.07070 08 22 49.63 +55 18 34.5          20.8 VqED025Y66
     K24B15M KB2024 02 16.07122 08 22 49.51 +55 18 36.0          20.6 VqED025Y66
     K24B15M KB2024 02 16.07174 08 22 49.38 +55 18 37.8          21.1 VqED025Y66
     K24B15M KB2024 02 16.07278 08 22 49.12 +55 18 40.9          20.6 VqED025Y66
     K24B15M KB2024 02 16.16267 08 22 31.26 +55 23 16.5          20.4 GVED025734
     K24B15M KB2024 02 16.17279 08 22 28.59 +55 23 49.2          20.4 GVED025734
     K24B15M KB2024 02 16.18256 08 22 26.22 +55 24 23.0          20.2 GVED025734
     K24B15M KB2024 02 16.71863 08 20 24.10 +55 52 02.8          20.3 GXED025M45
     K24B15M KB2024 02 16.72791 08 20 21.89 +55 52 32.7                XED025M45
     K24B15M KB2024 02 16.74811 08 20 16.94 +55 53 37.3          20.4 GXED025M45
     K24B15M KB2024 02 16.81796 08 20 00.03 +55 57 18.3          19.7 RZED025106
     K24B15M KB2024 02 16.82643 08 19 57.95 +55 57 44.8          19.7 RZED025106
     K24B15M KB2024 02 16.83461 08 19 55.89 +55 58 11.0          19.8 RZED025106
     K24B15M KB2024 02 16.84278 08 19 53.87 +55 58 36.6          19.5 RZED025106
     K24B15M KB2024 02 16.87097808 19 47.38 +56 00 05.1          20.3 GXED025I93
     K24B15M KB2024 02 16.87467408 19 46.46 +56 00 17.0          20.2 GXED025I93
     K24B15M KB2024 02 16.87835908 19 45.47 +56 00 28.3          19.6 GXED025I93
Observer details:
106 Crni Vrh.  Observer H. Mikuz.  0.60-m f/3.3 reflector + CMO.
734 Farpoint Observatory, Eskridge.  Observers D. Cromer, G. Hug, D. Goodin,
    R. Valentine.  Measurer D. Cromer.  0.69-m f/3.54 reflector + CMO.
F51 Pan-STARRS 1, Haleakala.  Observers J. Herman, T. Lowe, P. Minguez, A.
    Schultz, I. Smith.  Measurers K. Chambers, T. de Boer, J. Fairlamb, H.
    Gao, M. Huber, C.-C. Lin, E. Magnier, Y. Ramanjooloo, R. Wainscoat, R.
    Weryk.  1.8-m Ritchey-Chretien + CCD.
F52 Pan-STARRS 2, Haleakala.  Observers J. Herman, T. Lowe, P. Minguez, A.
    Schultz, I. Smith.  Measurers K. Chambers, T. de Boer, J. Fairlamb, H.
    Gao, M. Huber, C.-C. Lin, E. Magnier, Y. Ramanjooloo, R. Wainscoat, R.
    Weryk.  1.8-m Ritchey-Chretien + CCD.
G96 Mt. Lemmon Survey.  Observers V. F. Carvajal, J. K. Hogan.  Measurers T.
    Beuden, V. F. Carvajal, D. Fay, J. B. Fazekas, D. C. Fuls, A. R. Gibbs, A.
    D. Grauer, H. Groeller, J. K. Hogan, R. A. Kowalski, S. M. Larson, G. J.
    Leonard, D. Rankin, R. L. Seaman, F. C. Shelly, K. W. Wierzchos.  1.5-m
    reflector + 10K CCD.
H01 Magdalena Ridge Observatory, Socorro.  Observers W. H. Ryan, E. V. Ryan.
    Measurer W. H. Ryan.  2.4-m f/8.9 Ritchey-Chretien + CCD.
I52 Steward Observatory, Mt. Lemmon Station.  Observer J. B. Fazekas.
    Measurers E. C. Beshore, D. Fay, J. B. Fazekas, D. C. Fuls, A. R. Gibbs,
    A. D. Grauer, H. Groeller, J. K. Hogan, R. A. Kowalski, S. M. Larson, G.
    J. Leonard, D. Rankin, R. L. Seaman, F. C. Shelly, K. W. Wierzchos.  1.0-m
    prime focus + CCD.
I93 St Pardon de Conques.  Observer F. Losse.  0.40-m f/3.7 reflector + CCD.
L01 Visnjan Observatory, Tican.  Observer K. Korlevic.  1.0-m f/2.9 reflector
    + CCD.
M45 Starhopper Observatory, Sfantu Gheorghe.  Observer F. Ursache.  0.41-m
    f/7.5 reflector + CMO.
Y66 Two-Meter Twin Telescope, TTT2, Teide.  Observer M. Serra.  Measurer M.
    Hierro.  0.80-m f/4.38 reflector + CMO.
Orbital elements:
2024 BM15                                           PHA, Earth MOID = 0.0390 AU
Epoch 2024 Mar. 31.0 TT = JDT 2460400.5                 Veres                   
M 354.05541              (2000.0)            P               Q                  
n   0.30289456     Peri.  138.49481     -0.76654799     +0.62152096             
a   2.1958790      Node    80.66596     -0.62389083     -0.66110311             
e   0.6157609      Incl.    9.42593     -0.15219859     -0.42030272             
P   3.25           H   21.19          G   0.15           U   5                  
Residuals in seconds of arc
240102 F52  0.2+  0.1+    240215 F51  0.2+  0.2+    240216 Y66  0.1-  0.3+
240102 F52  0.2-  0.2-    240215 F51  0.0   0.0     240216 Y66  0.2-  0.2+
240107 F51  0.0   0.1+    240215 H01  0.0   0.1+    240216 734 (1.6+  1.0-)
240107 F51  0.1-  0.0     240215 H01  0.0   0.0     240216 734  0.2-  0.2-
240107 F51  0.0   0.1+    240215 H01  0.0   0.0     240216 734 (0.1-  2.9+)
240107 F51  0.1+  0.1+    240215 H01  0.0   0.0     240216 M45  0.2-  0.1+
240120 F52  0.1+  0.1+    240215 I52  0.0   0.0     240216 M45  0.2+  0.2+
240120 F52  0.0   0.1+    240215 I52  0.1-  0.0     240216 M45  0.1+  0.1+
240120 F52  0.1+  0.0     240215 I52  0.0   0.0     240216 106  0.2-  0.4+
240201 F52  0.2+  0.2-    240215 I52  0.1-  0.2-    240216 106  0.1+  0.1-
240201 F52  0.1-  0.1-    240215 L01  0.5+  0.1+    240216 106  0.1-  0.2+
240203 F52  0.0   0.0     240215 L01  0.1-  0.0     240216 106  0.1+  0.1-
240203 F52  0.1-  0.2+    240215 L01  0.0   0.3-    240216 I93  0.1-  0.1+
240215 G96  0.0   0.0     240215 L01  0.1+  0.3-    240216 I93  0.0   0.2+
240215 G96  0.1+  0.0     240215 L01  0.2-  0.1-    240216 I93  0.6-  0.2-
240215 G96  0.1-  0.1+    240216 Y66  0.1-  0.1+
240215 G96  0.2+  0.1-    240216 Y66  0.1-  0.0
Ephemeris:
2024 BM15                a,e,i = 2.20, 0.62, 9                   q = 0.8437
Date    TT    R. A. (2000) Decl.     Delta      r    Elong.  Phase     V
2024 01 18    09 14 31.2 +34 44 13   0.5202  1.4786   157.8    14.5    21.4
...
2024 02 02    08 59 19.6 +43 57 41   0.3878  1.3429   153.2    19.4    20.8
...
2024 02 10    08 42 11.9 +50 10 26   0.3348  1.2705   143.1    27.8    20.6
...
2024 02 16    08 23 07.2 +55 14 41   0.3022  1.2168   133.9    35.8    20.5
2024 02 17    08 19 15.9 +56 06 42   0.2973  1.2079   132.2    37.3    20.5
2024 02 18    08 15 10.9 +56 58 57   0.2925  1.1990   130.5    38.8    20.5
...
2024 02 24    07 44 43.6 +62 14 18   0.2665  1.1466   120.1    48.3    20.4
...
2024 03 03    06 38 20.3 +68 53 14   0.2375  1.0791   105.4    62.3    20.5
...
2024 03 18    02 07 50.7 +71 28 49   0.1969  0.9658    75.7    92.9    20.9
M. P. C. Staff               (C) Copyright 2024 MPC           M.P.E.C. 2024-D25
    
    
More information about the Iaude
mailing list